Location: ????
(30.1475°N, 31.1342°E)
Time: 02:32:35
(UTC+00:00)

ARIANE 5 R/B - Pass Details

Date: 05 April 2023
Orbit: 748 x 794 km, 98.8° (Epoch: 29 May)

Event Time Altitude Azimuth Distance (km) Brightness Sun altitude
Rises 02:05:11 0° 12° (NNE) 3,290 6.2 -20.8°
Reaches altitude 10° 02:07:30 10° 12° (NNE) 2,361 5.4 -20.4°
Maximum altitude 02:12:44 87° 285° (WNW) 799 2.5 -19.3°
Enters shadow 02:17:33 12° 195° (SSW) 2,192 4.5 -18.3°
